OpenBCM V1.13 (Linux)

Packet Radio Mailbox

DB0FHN

[JN59NK Nuernberg]

 Login: GUEST





  
LU9DCE > KEP      12.04.19 20:34l 259 Lines 12854 Bytes #999 (0) @ WW
BID : 21300_LU9DCE
Read: DF7EAV DK3UZ GUEST
Subj: TLE 12 04
Path: DB0FHN<DB0BLO<DB0ERF<OK0NAG<IK6ZDE<IW0QNL<JH4XSY<N3HYM<LU9DCE
Sent: 190412/1801Z 21300@LU9DCE.TOR.BA.ARG.SOAM LinBPQ6.0.18

            __    _  _  ___  ____   ___  ____    ____  ____  ____
           (  )  / )( \/ _ \(    \ / __)(  __)  (  _ \(  _ \/ ___)
           / (_/\) \/ (\__  )) D (( (__  ) _)    ) _ ( ) _ (\___ \
           \____/\____/(___/(____/ \___)(____)  (____/(____/(____/
               ESTACION DE PACKET RADIO - BUENOS AIRES (GF05OM)
                   BOLETINES INFORMATIVOS PROGRAMADOS (BIP)
                  SOPORTE TECNICO - HELLOCODELINUX@GMAIL.COM

+----------------------------------------------------------------------------+
OSCAR 7
1  7530U 74089B   19101.87230394 -.00000027  00000-0  11075-3 0  9998
2  7530 101.7371  70.2484 0012465 116.9235 297.5306 12.53637467 32020
OSCAR 11 (UoSAT 2)
1 14781U 84021B   19102.02917354  .00000072  00000-0  14941-4 0  9992
2 14781  97.6177 129.9238 0008656 171.8506 188.2850 14.83075569888731
OSCAR 19 (LUSAT)
1 20442U 90005G   19102.42549206  .00000008  00000-0  19045-4 0  9992
2 20442  98.6430  44.5597 0011662 353.6368   6.4666 14.32921736526748
EYESAT A
1 22825U 93061C   19102.19185918  .00000013  00000-0  22890-4 0  9992
2 22825  98.8998  89.3023 0008157 188.3402 171.7645 14.30055374332308
ITAMSAT
1 22826U 93061D   19101.92944519 +.00000002 +00000-0 +18674-4 0  9996
2 22826 098.8938 089.0341 0008890 178.2864 181.8349 14.30388500332210
RADIO ROSTO
1 23439U 94085A   19101.84526427 -.00000056 +00000-0 -37850-3 0  9996
2 23439 064.8159 225.8396 0147715 126.3157 235.1508 11.27568033000247
JAS 2
1 24278U 96046B   19102.40953055 -.00000007  00000-0  26323-4 0  9990
2 24278  98.5272 264.9795 0351142  54.6331 308.7091 13.53090082118704
TECHSAT 1B
1 25397U 98043D   19101.79833376 -.00000005  00000-0  17168-4 0  9991
2 25397  98.6833  42.7861 0000688 172.6816 187.4373 14.23663231 78218
ISS (ZARYA)
1 25544U 98067A   19102.50694037  .00005483  00000-0  95176-4 0  9999
2 25544  51.6440 327.7106 0001822 167.4297 263.2447 15.52541037165055
PCSAT
1 26931U 01043C   19101.61376483 -.00000032  00000-0  19477-4 0  9997
2 26931  67.0513 179.3540 0005802 277.7269  82.3173 14.30537821915237
SAUDISAT 1C
1 27607U 02058C   19102.17816839  .00000051  00000-0  27874-4 0  9991
2 27607  64.5541 256.0068 0082407 269.3760  89.7899 14.75534581877072
CUTE-1
1 27844U 03031E   19101.97187445 +.00000053 +00000-0 +43455-4 0  9992
2 27844 098.6864 111.1913 0009024 221.7884 138.2605 14.22169372818629
CUBESAT XI 4
1 27848U 03031J   19101.94475705  .00000040  00000-0  38180-4 0  9997
2 27848  98.6943 111.6493 0008754 234.2155 125.8209 14.21765687818518
MOZHAYETS 4
1 27939U 03042A   19102.51266529  .00000169  00000-0  38875-4 0  9999
2 27939  98.0289 239.6820 0011345 280.4073  79.5860 14.66768469830694
CUBESAT XI 5
1 28895U 05043F   19101.89745785 +.00000176 +00000-0 +42656-4 0  9990
2 28895 097.9478 246.9939 0016382 201.2435 158.8089 14.63647301717332
CUTE-1.7+APD II
1 32785U 08021C   19102.18399109  .00000293  00000-0  37282-4 0  9999
2 32785  97.5498 105.0850 0014437 123.2191 237.0413 14.88276822593641
DELFI C3
1 32789U 08021G   19101.95192600 +.00002123 +00000-0 +14652-3 0  9993
2 32789 097.4722 153.6405 0012021 005.2734 354.8618 15.06788924596660
SEEDS
1 32791U 08021J   19102.51708252  .00000454  00000-0  51454-4 0  9992
2 32791  97.5299 111.3003 0014986 100.7741 259.5166 14.90772789594109
YUBELEINY
1 32953U 08025A   19102.52088401  .00000020  00000-0  75656-4 0  9993
2 32953  82.5068 186.5312 0017872 275.5662  84.3383 12.43088622493963
PRISM (HITOMI)
1 33493U 09002B   19102.53651431  .00000701  00000-0  67067-4 0  9992
2 33493  98.1229  20.9469 0016551  48.9314 311.3333 14.96580158555102
KKS-1 (KISEKI)
1 33499U 09002H   19101.92523451 +.00000108 +00000-0 +23911-4 0  9991
2 33499 098.3544 298.4533 0010381 065.8524 294.3768 14.75421984548809
SWISSCUBE
1 35932U 09051B   19102.12508386  .00000171  00000-0  49699-4 0  9993
2 35932  98.5802 266.1466 0007868  22.0971 338.0563 14.56262107506943
BEESAT
1 35933U 09051C   19102.40707649  .00000141  00000-0  42755-4 0  9991
2 35933  98.5835 268.1614 0006354  36.0210 324.1414 14.56354228507091
ITUPSAT 1
1 35935U 09051E   19102.15105234  .00000101  00000-0  34337-4 0  9990
2 35935  98.5946 268.1403 0008596  30.6900 329.4798 14.55516992506817
XIWANG-1 (HOPE-1)
1 36122U 09072B   19101.71154649 -.00000027  00000-0  39057-4 0  9999
2 36122 100.0733 107.2874 0007665 135.5425 224.6305 13.16349300447937
TISAT 1
1 36799U 10035E   19102.37437467  .00000543  00000-0  60919-4 0  9998
2 36799  98.1455 252.3335 0011163 310.6421  49.3825 14.91049917474731
JUGNU
1 37839U 11058B   19102.07903747  .00000319  00000-0  28484-4 0  9998
2 37839  19.9625  24.7849 0018812 301.7427 186.9130 14.12646921387688
SRMSAT
1 37841U 11058D   19102.24143949  .00000290  00000-0  13926-4 0  9993
2 37841  19.9720  79.1774 0011914 174.8692 304.2461 14.10628492387152
M-CUBED/EXP-1 PRIME
1 37855U 11061F   19101.86964978 +.00001435 +00000-0 +79876-4 0  9990
2 37855 101.7246 322.6262 0173916 277.8497 080.3004 15.05258407406108
HORYU 2
1 38340U 12025D   19101.90627127 +.00000205 +00000-0 +37993-4 0  9996
2 38340 098.3370 138.4351 0011002 346.9078 013.1843 14.75690266360753
STRAND 1
1 39090U 13009E   19102.50394642  .00000018  00000-0  21428-4 0  9990
2 39090  98.4955 309.5636 0010110 124.4173 235.7970 14.35077677320757
SOMP
1 39134U 13015E   19102.51630867  .00002114  00000-0  10643-3 0  9994
2 39134  64.8640 238.0415 0024695 315.8111  44.1043 15.19978405330381
BEESAT 3
1 39135U 13015F   19102.51752620  .00001428  00000-0  81033-4 0  9996
2 39135  64.8660 255.4100 0011547 314.4499  45.5682 15.17315626330050
BEESAT 2
1 39136U 13015G   19101.80437481  .00001407  00000-0  81211-4 0  9998
2 39136  64.8677 261.3233 0012563 307.5750  52.4234 15.16755228329877
CUBEBUG 1
1 39153U 13018D   19102.51772474  .00000249  00000-0  39314-4 0  9993
2 39153  97.9743 201.0383 0018113  59.2488 301.0505 14.80538553321887
ZACUBE
1 39417U 13066B   19102.21344484  .00000232  00000-0  35620-4 0  9990
2 39417  97.5669 119.4935 0057452 254.8129 104.6726 14.81081939291051
TRITON 1
1 39427U 13066M   19102.51319857  .00000340  00000-0  62089-4 0  9999
2 39427  97.6708  84.0645 0114493  21.3241 339.2680 14.67807616288483
GOMX 1
1 39430U 13066Q   19102.49292321  .00000221  00000-0  48574-4 0  9997
2 39430  97.7399  63.5022 0152601 105.8624 255.9459 14.59218611286805
HUMSAT D
1 39433U 13066T   19102.35411154  .00000744  00000-0  77859-4 0  9990
2 39433  97.5619 152.5836 0031418 162.7361 197.4935 14.92129748293036
CUBEBUG 2
1 39440U 13066AA  19101.95132088 +.00000279 +00000-0 +45983-4 0  9995
2 39440 097.6022 104.3903 0079014 305.7240 053.6638 14.75821149288786
FUNCUBE 1
1 39444U 13066AE  19102.04853752  .00000296  00000-0  42933-4 0  9999
2 39444  97.5654 121.2153 0056634 249.3560 110.1575 14.81893345289915
UWE-3
1 39446U 13066AG  19101.93609736 +.00000238 +00000-0 +38387-4 0  9993
2 39446 097.5834 111.3119 0068494 281.4284 077.9240 14.78355338288667
SPROUT
1 39770U 14029E   19102.28686989  .00000915  00000-0  10769-3 0  9992
2 39770  97.8793 206.0477 0007793 312.9125  47.1433 14.87251236264818
UNISAT 6
1 40012U 14033C   19101.85789463 +.00000188 +00000-0 +35586-4 0  9998
2 40012 097.7677 331.3518 0057443 317.8669 041.8131 14.73948400258697
DUCHIFAT 1
1 40021U 14033M   19102.34858350  .00000550  00000-0  62091-4 0  9999
2 40021  97.9228  26.7275 0011464 273.5237  86.4670 14.90571803261514
QB50P1
1 40025U 14033R   19101.75701136  .00000337  00000-0  41897-4 0  9990
2 40025  97.9064  21.5509 0011038 285.4871  74.5127 14.88900621261215
CHUBUSAT 1
1 40300U 14070C   19102.20121752  .00000898  00000-0  42213-4 0  9993
2 40300  97.3321 178.0787 0018290 295.8559 119.9450 15.21988141245757
NUDT-PHONESAT
1 40900U 15049B   19102.28911279  .00003145  00000-0  13843-3 0  9999
2 40900  97.4403 112.2943 0014932  65.2144  59.2786 15.22498729197402
ZDPS 2A
1 40901U 15049C   19102.36310727  .00001158  00000-0  60834-4 0  9995
2 40901  97.4611 109.1629 0015455  78.3235  32.9469 15.17600566197029
ZDPS 2B
1 40902U 15049D   19102.45385372  .00001089  00000-0  57731-4 0  9999
2 40902  97.4552 106.8435 0015480  76.2804  82.1592 15.17374443197015
XW-2A
1 40903U 15049E   19102.53931042  .00002988  00000-0  72907-4 0  9991
2 40903  97.3459 144.9017 0014738  35.3793  68.7010 15.41585952199909
KAITUO 1A
1 40904U 15049F   19102.45624568  .00000500  00000-0  29972-4 0  9997
2 40904  97.4672 105.6209 0016501  82.0553  74.8101 15.15296197196815
OBJECT G
1 40905U 15049G   19102.34855907  .00000559  00000-0  34055-4 0  9991
2 40905  97.4701 103.1506 0017583  76.4677  34.4776 15.14229034196687
XW-2C
1 40906U 15049H   19102.33060635  .00001111  00000-0  61867-4 0  9993
2 40906  97.4680 105.5317 0016731  74.5618  39.7069 15.15582083196790
XW-2D
1 40907U 15049J   19102.44652440  .00000943  00000-0  52771-4 0  9993
2 40907  97.4660 105.3233 0016030  72.0600  31.8120 15.15761256196826
LILACSAT 2
1 40908U 15049K   19102.44646490  .00000237  00000-0  16710-4 0  9991
2 40908  97.4785 104.2773 0017845  76.2013  82.1994 15.13742816196637
XW-2F
1 40910U 15049M   19102.47979192  .00001754  00000-0  91521-4 0  9993
2 40910  97.4637 107.2114 0016591  66.0600  86.5064 15.17147818196826
XW-2B
1 40911U 15049N   19102.28125183  .00001086  00000-0  60385-4 0  9998
2 40911  97.4679 105.7913 0015995  73.7906  47.3194 15.15694308196697
KAITUO 1B
1 40912U 15049P   19102.48107729  .00001912  00000-0  93201-4 0  9998
2 40912  97.4522 110.7104 0016536  51.7328 102.3389 15.19440215197104
TIANWANG 1C (TW-1C)
1 40926U 15051B   19102.47305637  .00016620  00000-0  25573-3 0  9991
2 40926  97.1446 148.7715 0006542 259.3258 216.0150 15.54266036199718
